HS5SQI-1 Weather Reports


Display with metric or nautical units.
time (UTC)temp
F
wind
direction
speed
MPH
gust
MPH
rain 1hr
in
rain 24hr
in
rain mn
in
humidity
%
barometer
mb
20260504050233 90 0 0.0 0.0 0.00 0.00 0.00 87 967.0
20260504045211 90 0 0.0 0.0 0.00 0.00 0.00 90 967.0
20260504044149 89 0 0.0 0.0 0.00 0.00 0.00 90 968.0
20260504043127 89 0 0.0 0.0 0.00 0.00 0.00 97 968.0
20260504042105 88 0 0.0 0.0 0.00 0.00 0.00 99 968.0
20260504041043 87 0 0.0 0.0 0.00 0.00 0.00 99 968.0
20260504040021 87 0 0.0 0.0 0.00 0.00 0.00 99 968.0
20260504034959 86 0 0.0 0.0 0.00 0.00 0.00 99 968.0
20260504033937 85 0 0.0 0.0 0.00 0.00 0.00 99 968.0
20260504032915 84 0 0.0 0.0 0.00 0.00 0.00 99 968.0
20260504031853 83 0 0.0 0.0 0.00 0.00 0.00 99 968.0
20260504030831 83 0 0.0 0.0 0.00 0.00 0.00 99 968.0
20260504025809 83 0 0.0 0.0 0.00 0.00 0.00 99 969.0
20260504024747 82 0 0.0 0.0 0.00 0.00 0.00 99 969.0
20260504023725 82 0 0.0 0.0 0.00 0.00 0.00 99 969.0
20260504022703 81 0 0.0 0.0 0.00 0.00 0.00 99 969.0
20260504021641 81 0 0.0 0.0 0.00 0.00 0.00 99 969.0
20260504020619 80 0 0.0 0.0 0.00 0.00 0.00 99 969.0
20260504015557 80 0 0.0 0.0 0.00 0.00 0.00 99 968.0
20260504014535 80 0 0.0 0.0 0.00 0.00 0.00 99 968.0
20260504013513 79 0 0.0 0.0 0.00 0.00 0.00 99 968.0
20260504012451 79 0 0.0 0.0 0.00 0.00 0.00 99 968.0
20260504011429 78 0 0.0 0.0 0.00 0.00 0.00 99 968.0
20260504010407 79 0 0.0 0.0 0.00 0.00 0.00 99 968.0
20260504005345 79 0 0.0 0.0 0.00 0.00 0.00 99 968.0
20260504004323 79 0 0.0 0.0 0.00 0.00 0.00 99 968.0
20260504003301 79 0 0.0 0.0 0.00 0.00 0.00 99 967.0
20260504002239 78 0 0.0 0.0 0.00 0.00 0.00 99 967.0
20260504001217 77 0 0.0 0.0 0.00 0.00 0.00 99 967.0
20260504000155 78 0 0.0 0.0 0.00 0.00 0.00 99 967.0
20260503235133 76 0 0.0 0.0 0.00 0.00 0.00 99 967.0
20260503234111 76 0 0.0 0.0 0.00 0.00 0.00 99 967.0
20260503233049 76 0 0.0 0.0 0.00 0.00 0.00 99 967.0
20260503232027 76 0 0.0 0.0 0.00 0.00 0.00 99 967.0
20260503231005 78 0 0.0 0.0 0.00 0.00 0.00 99 967.0
20260503225943 78 0 0.0 0.0 0.00 0.00 0.00 99 967.0
20260503224921 79 0 0.0 0.0 0.00 0.00 0.00 99 967.0
20260503223859 79 0 0.0 0.0 0.00 0.00 0.00 99 967.0
20260503222836 79 0 0.0 0.0 0.00 0.00 0.00 99 967.0
20260503221814 79 0 0.0 0.0 0.00 0.00 0.00 99 966.0
20260503220752 79 0 0.0 0.0 0.00 0.00 0.00 99 966.0
20260503215730 79 0 0.0 0.0 0.00 0.00 0.00 99 966.0
20260503214709 79 0 0.0 0.0 0.00 0.00 0.00 99 966.0
20260503213647 79 0 0.0 0.0 0.00 0.00 0.00 99 966.0
20260503212625 78 0 0.0 0.0 0.00 0.00 0.00 99 966.0
20260503211602 77 0 0.0 0.0 0.00 0.00 0.00 99 966.0
20260503210540 78 0 0.0 0.0 0.00 0.00 0.00 99 966.0
20260503205518 78 0 0.0 0.0 0.00 0.00 0.00 99 966.0
20260503204456 79 0 0.0 0.0 0.00 0.00 0.00 99 966.0
20260503203434 79 0 0.0 0.0 0.00 0.00 0.00 99 965.0
20260503202412 78 0 0.0 0.0 0.00 0.00 0.00 99 966.0
20260503201350 78 0 0.0 0.0 0.00 0.00 0.00 99 965.0
20260503200328 78 0 0.0 0.0 0.00 0.00 0.00 99 966.0
20260503195322 79 0 0.0 0.0 0.00 0.00 0.00 99 965.0
20260503194259 79 0 0.0 0.0 0.00 0.00 0.00 99 965.0
20260503193237 78 0 0.0 0.0 0.00 0.00 0.00 99 965.0
20260503192215 78 0 0.0 0.0 0.00 0.00 0.00 99 965.0
20260503191153 79 0 0.0 0.0 0.00 0.00 0.00 99 966.0
20260503190131 79 0 0.0 0.0 0.00 0.00 0.00 99 966.0
20260503185109 77 0 0.0 0.0 0.00 0.00 0.00 99 966.0
20260503184047 78 0 0.0 0.0 0.00 0.00 0.00 99 966.0
20260503183025 78 0 0.0 0.0 0.00 0.00 0.00 99 966.0
20260503182004 79 0 0.0 0.0 0.00 0.00 0.00 99 966.0
20260503180941 80 0 0.0 0.0 0.00 0.00 0.00 99 966.0
20260503175919 80 0 0.0 0.0 0.00 0.00 0.00 99 966.0
20260503174857 80 0 0.0 0.0 0.00 0.00 0.00 99 966.0
20260503173835 81 0 0.0 0.0 0.00 0.00 0.00 99 966.0
20260503172813 82 0 0.0 0.0 0.00 0.00 0.00 99 966.0
20260503171751 82 0 0.0 0.0 0.00 0.00 0.00 99 966.0
20260503170729 80 0 0.0 0.0 0.00 0.00 0.00 99 966.0
20260503150238 79 0 0.0 0.0 0.00 0.00 0.00 99 966.0
20260503130836 84 0 0.0 0.0 0.00 0.00 0.00 99 963.0
20260503110412 94 0 0.0 0.0 0.00 0.00 0.00 58 962.0
20260503100200 95 0 0.0 0.0 0.00 0.00 0.00 52 961.0
20260503080757 98 0 0.0 0.0 0.00 0.00 0.00 52 962.0
20260503072629 97 0 0.0 0.0 0.00 0.00 0.00 56 963.0
20260503071607 96 0 0.0 0.0 0.00 0.00 0.00 57 963.0
20260503070545 96 0 0.0 0.0 0.00 0.00 0.00 55 963.0